FDB294 OMDB-LGAV

Flight info

Callsign FDB294
Flight time N/A
Altitude 30000
Route SENPA N571 ALPOB L768 DUSBO/N0475F320 L768 VATIM L550 NOVPA J981 DATOK L550 SERMA/N0464F340 L550 GENIV L324 LAKTO DCT ANIDE DCT AKINA UL995 PIDAX/N0429F240 L995 VARIX
Aircraft B738/M-SDE2E3FGHIRWXY/LB1

Departure

Time 2026-04-22 15:24
Airport Dubai International Airport (OMDB)

Arrival

Time N/A
Airport Athens Eleftherios Venizelos International Airport (LGAV)
Time Latitude Longitude Altitude Speed Heading
2026-04-22 14:21 25.25226 55.35641 12 ft 0 kts 212°
2026-04-22 15:00 25.25230 55.35643 9 ft 4 kts 212°
2026-04-22 15:00 25.25253 55.35659 12 ft 4 kts 212°
2026-04-22 15:00 25.25275 55.35674 13 ft 4 kts 208°
2026-04-22 15:01 25.25300 55.35685 15 ft 4 kts 188°
2026-04-22 15:01 25.25324 55.35682 15 ft 4 kts 141°
2026-04-22 15:01 25.25331 55.35675 12 ft 1 kts 120°
2026-04-22 15:10 25.25331 55.35696 12 ft 3 kts 84°
2026-04-22 15:10 25.25333 55.35718 11 ft 3 kts 84°
2026-04-22 15:11 25.25335 55.35740 11 ft 3 kts 75°
2026-04-22 15:11 25.25338 55.35744 11 ft 3 kts 58°
2026-04-22 15:11 25.25341 55.35749 13 ft 3 kts 58°
2026-04-22 15:12 25.25346 55.35755 13 ft 3 kts 41°
2026-04-22 15:12 25.25368 55.35760 12 ft 5 kts
2026-04-22 15:12 25.25402 55.35729 12 ft 7 kts 291°
2026-04-22 15:12 25.25431 55.35680 13 ft 10 kts 305°
2026-04-22 15:13 25.25484 55.35588 11 ft 17 kts 300°
2026-04-22 15:13 25.25550 55.35470 13 ft 20 kts 301°
2026-04-22 15:13 25.25609 55.35362 14 ft 12 kts 301°
2026-04-22 15:13 25.25652 55.35286 15 ft 11 kts 302°
2026-04-22 15:14 25.25690 55.35220 17 ft 7 kts 309°
2026-04-22 15:14 25.25729 55.35193 16 ft 7 kts 340°
2026-04-22 15:14 25.25774 55.35212 14 ft 7 kts 36°
2026-04-22 15:14 25.25824 55.35253 14 ft 14 kts 33°
2026-04-22 15:15 25.25902 55.35308 16 ft 13 kts 33°
2026-04-22 15:15 25.25973 55.35357 18 ft 11 kts 31°
2026-04-22 15:15 25.25980 55.35361 18 ft 0 kts 31°
2026-04-22 15:15 25.25998 55.35374 18 ft 6 kts 31°
2026-04-22 15:16 25.26017 55.35385 18 ft 0 kts 27°
2026-04-22 15:16 25.26037 55.35417 18 ft 14 kts 69°
2026-04-22 15:17 25.26009 55.35513 18 ft 13 kts 121°
2026-04-22 15:17 25.25957 55.35595 17 ft 13 kts 124°
2026-04-22 15:17 25.25910 55.35676 17 ft 13 kts 122°
2026-04-22 15:17 25.25865 55.35756 17 ft 12 kts 123°
2026-04-22 15:18 25.25819 55.35834 16 ft 12 kts 122°
2026-04-22 15:18 25.25774 55.35909 16 ft 12 kts 127°
2026-04-22 15:18 25.25728 55.35990 17 ft 13 kts 121°
2026-04-22 15:18 25.25673 55.36097 19 ft 19 kts 119°
2026-04-22 15:19 25.25600 55.36230 22 ft 21 kts 121°
2026-04-22 15:19 25.25526 55.36366 23 ft 20 kts 121°
2026-04-22 15:19 25.25438 55.36524 21 ft 26 kts 121°
2026-04-22 15:19 25.25348 55.36688 22 ft 24 kts 121°
2026-04-22 15:20 25.25266 55.36839 25 ft 23 kts 121°
2026-04-22 15:20 25.25182 55.36984 27 ft 22 kts 122°
2026-04-22 15:20 25.25102 55.37126 33 ft 21 kts 122°
2026-04-22 15:20 25.25026 55.37267 34 ft 21 kts 119°
2026-04-22 15:21 25.24952 55.37402 38 ft 20 kts 122°
2026-04-22 15:21 25.24880 55.37534 37 ft 21 kts 122°
2026-04-22 15:21 25.24768 55.37738 39 ft 31 kts 121°
2026-04-22 15:21 25.24685 55.37883 38 ft 18 kts 120°
2026-04-22 15:22 25.24689 55.37959 39 ft 8 kts 49°
2026-04-22 15:22 25.24694 55.37964 39 ft 0 kts 38°
2026-04-22 15:22 25.24731 55.37994 38 ft 26 kts 32°
2026-04-22 15:23 25.24851 55.37950 39 ft 20 kts 296°
2026-04-22 15:23 25.24951 55.37764 38 ft 55 kts 302°
2026-04-22 15:23 25.25277 55.37175 35 ft 123 kts 302°
2026-04-22 15:23 25.25831 55.36196 30 ft 179 kts 304°
2026-04-22 15:24 25.26561 55.34924 464 ft 198 kts 305°
2026-04-22 15:24 25.27260 55.33671 1448 ft 189 kts 303°
2026-04-22 15:24 25.27948 55.32412 2160 ft 198 kts 302°
2026-04-22 15:24 25.28705 55.31038 2391 ft 218 kts 301°
2026-04-22 15:25 25.29482 55.29518 2622 ft 232 kts 290°
2026-04-22 15:25 25.29732 55.27750 3050 ft 234 kts 273°
2026-04-22 15:25 25.29853 55.25950 3581 ft 233 kts 274°
2026-04-22 15:25 25.29984 55.24190 4067 ft 234 kts 274°
2026-04-22 15:26 25.30119 55.22399 4571 ft 233 kts 274°
2026-04-22 15:26 25.30259 55.20613 5040 ft 233 kts 274°
2026-04-22 15:26 25.30399 55.18824 5527 ft 233 kts 273°
2026-04-22 15:26 25.30396 55.17012 5845 ft 240 kts 264°
2026-04-22 15:27 25.30249 55.15161 6234 ft 243 kts 263°
2026-04-22 15:27 25.30082 55.13299 6648 ft 244 kts 263°
2026-04-22 15:27 25.29920 55.11435 7023 ft 247 kts 263°
2026-04-22 15:27 25.29761 55.09542 7439 ft 248 kts 263°
2026-04-22 15:28 25.29605 55.07637 7842 ft 251 kts 263°
2026-04-22 15:28 25.29447 55.05668 8002 ft 266 kts 263°
2026-04-22 15:28 25.29281 55.03572 8316 ft 278 kts 263°
2026-04-22 15:28 25.29119 55.01471 8982 ft 277 kts 263°
2026-04-22 15:29 25.28958 54.99337 9593 ft 281 kts 265°
2026-04-22 15:29 25.29021 54.97161 10162 ft 285 kts 273°
2026-04-22 15:29 25.29244 54.94925 10415 ft 302 kts 275°
2026-04-22 15:30 25.29794 54.90028 10697 ft 338 kts 275°
2026-04-22 15:30 25.30076 54.87388 10855 ft 353 kts 275°
2026-04-22 15:30 25.30355 54.84657 11252 ft 359 kts 274°
2026-04-22 15:30 25.30629 54.81905 11796 ft 361 kts 274°
2026-04-22 15:31 25.30895 54.79168 12331 ft 363 kts 274°
2026-04-22 15:31 25.31162 54.76375 12869 ft 365 kts 274°
2026-04-22 15:31 25.31428 54.73566 13393 ft 368 kts 274°
2026-04-22 15:31 25.31695 54.70741 13874 ft 371 kts 274°
2026-04-22 15:32 25.32111 54.67920 14379 ft 373 kts 281°
2026-04-22 15:32 25.32750 54.65135 14909 ft 374 kts 283°
2026-04-22 15:32 25.33433 54.62349 15414 ft 376 kts 283°
2026-04-22 15:32 25.34116 54.59590 15907 ft 377 kts 283°
2026-04-22 15:33 25.34806 54.56782 16405 ft 379 kts 283°
2026-04-22 15:33 25.35490 54.53956 16893 ft 380 kts 283°
2026-04-22 15:33 25.36169 54.51122 17391 ft 382 kts 283°
2026-04-22 15:33 25.36844 54.48278 17872 ft 383 kts 283°
2026-04-22 15:34 25.37521 54.45413 18305 ft 385 kts 283°
2026-04-22 15:34 25.38197 54.42537 18712 ft 387 kts 283°
2026-04-22 15:34 25.38873 54.39653 19113 ft 388 kts 283°
2026-04-22 15:34 25.39553 54.36748 19510 ft 390 kts 283°
2026-04-22 15:35 25.40003 54.34823 19767 ft 391 kts 283°
2026-04-22 15:35 25.40908 54.30950 20276 ft 394 kts 282°
2026-04-22 15:35 25.41596 54.28003 20677 ft 395 kts 282°
2026-04-22 15:35 25.42285 54.25049 21055 ft 397 kts 282°
2026-04-22 15:36 25.42976 54.22082 21420 ft 399 kts 282°
2026-04-22 15:36 25.43670 54.19104 21787 ft 400 kts 282°
2026-04-22 15:36 25.44366 54.16111 22146 ft 402 kts 282°
2026-04-22 15:36 25.45065 54.13098 22491 ft 404 kts 282°
2026-04-22 15:37 25.45755 54.10125 22825 ft 406 kts 282°
2026-04-22 15:37 25.46459 54.07088 23161 ft 407 kts 282°
2026-04-22 15:37 25.47164 54.04048 23472 ft 409 kts 282°
2026-04-22 15:37 25.47872 54.00989 23743 ft 410 kts 282°
2026-04-22 15:38 25.48582 53.97916 24028 ft 411 kts 282°
2026-04-22 15:38 25.50002 53.91764 24574 ft 414 kts 282°
2026-04-22 15:38 25.50715 53.88672 24844 ft 415 kts 282°
2026-04-22 15:39 25.51429 53.85567 25094 ft 417 kts 282°
2026-04-22 15:39 25.52145 53.82454 25351 ft 418 kts 282°
2026-04-22 15:39 25.52853 53.79372 25628 ft 418 kts 282°
2026-04-22 15:39 25.53570 53.76249 25919 ft 419 kts 282°
2026-04-22 15:40 25.54287 53.73121 26183 ft 420 kts 282°
2026-04-22 15:40 25.55007 53.69977 26424 ft 421 kts 282°
2026-04-22 15:40 25.55728 53.66828 26658 ft 422 kts 282°
2026-04-22 15:40 25.56450 53.63667 26900 ft 424 kts 283°
2026-04-22 15:41 25.57175 53.60493 27142 ft 425 kts 283°
2026-04-22 15:41 25.57898 53.57322 27377 ft 426 kts 283°
2026-04-22 15:41 25.58622 53.54141 27603 ft 427 kts 283°
2026-04-22 15:41 25.59349 53.50946 27819 ft 428 kts 283°
2026-04-22 15:42 25.60077 53.47746 28042 ft 429 kts 283°
2026-04-22 15:42 25.60804 53.44546 28322 ft 428 kts 283°
2026-04-22 15:42 25.61529 53.41349 28677 ft 426 kts 283°
2026-04-22 15:42 25.62250 53.38167 29045 ft 424 kts 283°
2026-04-22 15:43 25.62965 53.35006 29379 ft 423 kts 283°
2026-04-22 15:43 25.63679 53.31848 29667 ft 422 kts 283°
2026-04-22 15:43 25.64393 53.28688 29816 ft 424 kts 283°
2026-04-22 15:43 25.65103 53.25540 29818 ft 427 kts 283°
2026-04-22 15:44 25.66546 53.19133 29820 ft 428 kts 283°
2026-04-22 15:44 25.67985 53.12729 29829 ft 427 kts 283°
2026-04-22 15:45 25.68704 53.09522 29965 ft 429 kts 283°
2026-04-22 15:45 25.69424 53.06312 30260 ft 427 kts 283°
2026-04-22 15:45 25.70153 53.03136 30572 ft 425 kts 285°
2026-04-22 15:45 25.71139 53.00053 30834 ft 425 kts 292°
2026-04-22 15:46 25.72485 52.97129 31053 ft 426 kts 296°
2026-04-22 15:46 25.73883 52.94233 31256 ft 426 kts 296°
2026-04-22 15:46 25.75279 52.91342 31490 ft 425 kts 296°
2026-04-22 15:46 25.76666 52.88451 31735 ft 424 kts 296°
2026-04-22 15:47 25.78043 52.85558 31978 ft 423 kts 295°
2026-04-22 15:47 25.79392 52.82712 32196 ft 422 kts 295°
2026-04-22 15:47 25.80753 52.79828 32403 ft 422 kts 295°
2026-04-22 15:47 25.82111 52.76947 32635 ft 421 kts 295°
2026-04-22 15:48 25.83467 52.74068 32864 ft 420 kts 295°
2026-04-22 15:48 25.84821 52.71193 33070 ft 419 kts 295°
2026-04-22 15:48 25.86170 52.68326 33289 ft 419 kts 295°
2026-04-22 15:48 25.87515 52.65466 33491 ft 418 kts 295°
2026-04-22 15:49 25.88863 52.62598 33708 ft 417 kts 295°
2026-04-22 15:49 25.90199 52.59745 33914 ft 416 kts 294°
2026-04-22 15:49 25.91490 52.56881 34123 ft 414 kts 294°
2026-04-22 15:49 25.92754 52.54019 34381 ft 410 kts 294°
2026-04-22 15:50 25.94003 52.51177 34653 ft 407 kts 294°
2026-04-22 15:50 25.95229 52.48394 34890 ft 404 kts 294°
2026-04-22 15:50 25.96464 52.45602 35137 ft 401 kts 294°
2026-04-22 15:50 25.97665 52.42820 35362 ft 397 kts 290°
2026-04-22 15:51 25.98524 52.39924 35543 ft 394 kts 283°
2026-04-22 15:51 25.99218 52.36981 35676 ft 394 kts 283°
2026-04-22 15:51 25.99911 52.34035 35784 ft 393 kts 283°
2026-04-22 15:51 26.00607 52.31091 35825 ft 394 kts 283°
2026-04-22 15:52 26.02020 52.25167 35848 ft 397 kts 284°
2026-04-22 15:52 26.03450 52.19207 35852 ft 400 kts 284°
2026-04-22 15:53 26.04884 52.13216 35854 ft 402 kts 283°
2026-04-22 15:53 26.06319 52.07199 35847 ft 403 kts 283°
2026-04-22 15:54 26.07513 52.02182 35847 ft 403 kts 283°
2026-04-22 15:54 26.09177 51.95182 35848 ft 402 kts 283°
2026-04-22 15:55 26.10372 51.90143 35845 ft 401 kts 283°
2026-04-22 15:55 26.11785 51.84178 35848 ft 400 kts 283°
2026-04-22 15:56 26.13199 51.78192 35849 ft 399 kts 283°
2026-04-22 15:56 26.14607 51.72220 35851 ft 398 kts 283°
2026-04-22 15:57 26.16011 51.66255 35848 ft 398 kts 283°
2026-04-22 15:57 26.17408 51.60307 35848 ft 397 kts 283°
2026-04-22 15:58 26.18804 51.54354 35851 ft 396 kts 283°
2026-04-22 15:58 26.20185 51.48450 35848 ft 396 kts 283°
2026-04-22 15:59 26.21570 51.42518 35849 ft 396 kts 283°
2026-04-22 15:59 26.22951 51.36590 35847 ft 395 kts 283°
2026-04-22 16:00 26.24328 51.30668 35851 ft 395 kts 282°
2026-04-22 16:00 26.25703 51.24744 35851 ft 395 kts 282°
2026-04-22 16:01 26.27074 51.18826 35850 ft 395 kts 282°
2026-04-22 16:01 26.28444 51.12899 35849 ft 395 kts 282°
2026-04-22 16:02 26.29811 51.06975 35851 ft 395 kts 282°
2026-04-22 16:02 26.31175 51.01050 35848 ft 395 kts 282°
2026-04-22 16:03 26.32529 50.95157 35844 ft 395 kts 282°
2026-04-22 16:03 26.33888 50.89228 35842 ft 395 kts 282°
2026-04-22 16:04 26.35248 50.83286 35835 ft 395 kts 282°
2026-04-22 16:04 26.36603 50.77352 35839 ft 395 kts 282°
2026-04-22 16:05 26.37954 50.71425 35834 ft 394 kts 282°
2026-04-22 16:05 26.39302 50.65500 35833 ft 394 kts 282°
2026-04-22 16:06 26.40636 50.59622 35836 ft 393 kts 282°
2026-04-22 16:06 26.41975 50.53710 35837 ft 392 kts 282°
2026-04-22 16:07 26.43307 50.47816 35836 ft 391 kts 282°
2026-04-22 16:07 26.44635 50.41932 35837 ft 391 kts 282°
2026-04-22 16:08 26.45958 50.36055 35830 ft 390 kts 282°
2026-04-22 16:08 26.47275 50.30192 35830 ft 389 kts 282°
2026-04-22 16:09 26.48587 50.24339 35834 ft 388 kts 282°
2026-04-22 16:09 26.49894 50.18497 35830 ft 388 kts 282°
2026-04-22 16:10 26.51199 50.12655 35838 ft 387 kts 282°
2026-04-22 16:10 26.52497 50.06828 35859 ft 387 kts 282°
2026-04-22 16:11 26.53793 50.00999 35863 ft 386 kts 282°
2026-04-22 16:11 26.55085 49.95177 35864 ft 386 kts 281°
2026-04-22 16:12 26.56375 49.89353 35858 ft 386 kts 281°
2026-04-22 16:12 26.57663 49.83534 35862 ft 386 kts 282°
2026-04-22 16:13 26.59707 49.77958 35867 ft 390 kts 292°
2026-04-22 16:13 26.62068 49.72547 35864 ft 390 kts 291°
2026-04-22 16:14 26.64418 49.67090 35865 ft 390 kts 291°
2026-04-22 16:14 26.66758 49.61627 35871 ft 390 kts 291°
2026-04-22 16:15 26.69095 49.56161 35876 ft 390 kts 291°
2026-04-22 16:15 26.71431 49.50690 35882 ft 390 kts 291°
2026-04-22 16:16 26.73766 49.45214 35884 ft 390 kts 291°
2026-04-22 16:16 26.76100 49.39736 35884 ft 390 kts 291°
2026-04-22 16:17 26.78433 49.34251 35885 ft 390 kts 291°
2026-04-22 16:17 26.80763 49.28766 35888 ft 390 kts 291°
2026-04-22 16:18 26.83093 49.23276 35890 ft 390 kts 291°
2026-04-22 16:18 26.85421 49.17780 35891 ft 390 kts 291°
2026-04-22 16:19 26.87747 49.12284 35887 ft 391 kts 290°
2026-04-22 16:19 26.90075 49.06776 35893 ft 391 kts 290°
2026-04-22 16:20 26.92397 49.01274 35896 ft 390 kts 290°
2026-04-22 16:20 26.94705 48.95798 35894 ft 390 kts 290°
2026-04-22 16:21 26.97022 48.90294 35901 ft 390 kts 290°
2026-04-22 16:21 26.99338 48.84785 35898 ft 390 kts 290°
2026-04-22 16:22 27.02802 48.76530 35900 ft 390 kts 290°
2026-04-22 16:23 27.06263 48.68266 35903 ft 390 kts 290°
2026-04-22 16:23 27.08554 48.62788 35905 ft 390 kts 290°
2026-04-22 16:24 27.12005 48.54521 35909 ft 390 kts 290°
2026-04-22 16:25 27.14303 48.49005 35907 ft 389 kts 289°
2026-04-22 16:25 27.17744 48.40734 35911 ft 389 kts 289°
2026-04-22 16:26 27.20019 48.35257 35915 ft 389 kts 289°
2026-04-22 16:26 27.22306 48.29741 35916 ft 389 kts 289°
2026-04-22 16:27 27.24593 48.24220 35916 ft 389 kts 289°
2026-04-22 16:27 27.26876 48.18701 35917 ft 389 kts 289°
2026-04-22 16:28 27.29158 48.13177 35924 ft 390 kts 289°
2026-04-22 16:28 27.31444 48.07633 35923 ft 390 kts 289°
2026-04-22 16:29 27.33711 48.02130 35927 ft 390 kts 289°
2026-04-22 16:29 27.35994 47.96581 35924 ft 391 kts 289°
2026-04-22 16:30 27.38276 47.91026 35930 ft 391 kts 289°
2026-04-22 16:30 27.40558 47.85463 35926 ft 392 kts 289°
2026-04-22 16:31 27.42844 47.79883 35928 ft 392 kts 289°
2026-04-22 16:31 27.45108 47.74350 35929 ft 392 kts 289°
2026-04-22 16:32 27.47386 47.68774 35931 ft 392 kts 289°
2026-04-22 16:32 27.49659 47.63204 35930 ft 391 kts 289°
2026-04-22 16:33 27.51931 47.57628 35932 ft 391 kts 289°
2026-04-22 16:33 27.54194 47.52066 35931 ft 390 kts 289°
2026-04-22 16:34 27.56438 47.46543 35938 ft 389 kts 289°
2026-04-22 16:34 27.58687 47.40998 35933 ft 389 kts 289°
2026-04-22 16:35 27.60935 47.35452 35936 ft 388 kts 289°
2026-04-22 16:35 27.63175 47.29915 35936 ft 387 kts 289°
2026-04-22 16:36 27.65405 47.24395 35936 ft 386 kts 289°
2026-04-22 16:36 27.67631 47.18878 35934 ft 386 kts 289°
2026-04-22 16:37 27.69852 47.13365 35942 ft 385 kts 289°
2026-04-22 16:37 27.72051 47.07901 35933 ft 384 kts 289°
2026-04-22 16:38 27.74257 47.02410 35930 ft 384 kts 289°
2026-04-22 16:38 27.76460 46.96920 35961 ft 383 kts 288°
2026-04-22 16:39 27.78658 46.91434 35933 ft 383 kts 288°
2026-04-22 16:39 27.80850 46.85956 35922 ft 382 kts 288°
2026-04-22 16:40 27.83029 46.80504 35917 ft 380 kts 288°
2026-04-22 16:41 27.85916 46.73269 35922 ft 378 kts 288°
2026-04-22 16:41 27.88069 46.67864 35925 ft 376 kts 288°
2026-04-22 16:42 27.90211 46.62475 35921 ft 375 kts 288°
2026-04-22 16:42 27.92351 46.57087 35921 ft 375 kts 288°
2026-04-22 16:43 27.94488 46.51700 35921 ft 375 kts 288°
2026-04-22 16:43 27.96621 46.46312 35929 ft 376 kts 288°
2026-04-22 16:44 27.98748 46.40936 35924 ft 377 kts 288°
2026-04-22 16:44 28.00886 46.35521 35926 ft 377 kts 288°
2026-04-22 16:45 28.03027 46.30093 35927 ft 378 kts 288°
2026-04-22 16:45 28.05172 46.24648 35928 ft 379 kts 288°
2026-04-22 16:46 28.07320 46.19189 35935 ft 379 kts 288°
2026-04-22 16:46 28.09468 46.13719 35935 ft 380 kts 288°
2026-04-22 16:47 28.11616 46.08244 35932 ft 380 kts 288°
2026-04-22 16:47 28.13748 46.02802 35930 ft 380 kts 288°
2026-04-22 16:48 28.15891 45.97324 35927 ft 379 kts 288°
2026-04-22 16:48 28.18024 45.91865 35932 ft 378 kts 288°
2026-04-22 16:49 28.20152 45.86410 35935 ft 378 kts 288°
2026-04-22 16:49 28.22258 45.81003 35935 ft 377 kts 288°
2026-04-22 16:50 28.24375 45.75558 35927 ft 377 kts 288°
2026-04-22 16:50 28.26489 45.70116 35936 ft 376 kts 288°
2026-04-22 16:51 28.28597 45.64680 35935 ft 376 kts 288°
2026-04-22 16:51 28.30701 45.59249 35935 ft 375 kts 288°
2026-04-22 16:52 28.32785 45.53860 35935 ft 375 kts 288°
2026-04-22 16:52 28.34883 45.48428 35941 ft 375 kts 288°
2026-04-22 16:53 28.36979 45.42992 35940 ft 376 kts 288°
2026-04-22 16:53 28.39074 45.37551 35940 ft 376 kts 288°
2026-04-22 16:54 28.41167 45.32108 35942 ft 376 kts 288°
2026-04-22 16:54 28.43264 45.26649 35947 ft 377 kts 288°
2026-04-22 16:55 28.45355 45.21194 35949 ft 377 kts 288°
2026-04-22 16:55 28.47450 45.15722 35951 ft 377 kts 288°
2026-04-22 16:56 28.49543 45.10248 35954 ft 378 kts 288°
2026-04-22 16:56 28.51626 45.04792 35953 ft 379 kts 287°
2026-04-22 16:57 28.53724 44.99290 35953 ft 379 kts 287°
2026-04-22 16:57 28.55820 44.93783 35951 ft 379 kts 287°
2026-04-22 16:58 28.57564 44.89196 35955 ft 380 kts 287°
2026-04-22 16:58 28.60016 44.82738 35953 ft 380 kts 287°
2026-04-22 16:59 28.62099 44.77242 35956 ft 380 kts 287°
2026-04-22 16:59 28.64192 44.71712 35960 ft 381 kts 287°
2026-04-22 17:00 28.66288 44.66168 35962 ft 381 kts 287°
2026-04-22 17:00 28.69421 44.57863 35962 ft 380 kts 287°
2026-04-22 17:01 28.71506 44.52325 35963 ft 380 kts 287°
2026-04-22 17:01 28.73592 44.46777 35962 ft 380 kts 287°
2026-04-22 17:02 28.75671 44.41239 35966 ft 380 kts 287°
2026-04-22 17:02 28.77745 44.35707 35967 ft 379 kts 287°
2026-04-22 17:03 28.79803 44.30208 35972 ft 379 kts 287°
2026-04-22 17:03 28.81871 44.24676 35970 ft 379 kts 287°
2026-04-22 17:04 28.83935 44.19145 35969 ft 379 kts 287°
2026-04-22 17:04 28.85998 44.13606 35968 ft 379 kts 287°
2026-04-22 17:05 28.88061 44.08062 35969 ft 379 kts 287°
2026-04-22 17:05 28.90121 44.02516 35969 ft 379 kts 287°
2026-04-22 17:06 28.92180 43.96967 35967 ft 380 kts 287°
2026-04-22 17:06 28.94241 43.91401 35970 ft 381 kts 287°
2026-04-22 17:07 28.96296 43.85845 35970 ft 382 kts 287°
2026-04-22 17:07 28.98364 43.80244 35971 ft 383 kts 287°
2026-04-22 17:08 29.00436 43.74624 35971 ft 384 kts 287°
2026-04-22 17:08 29.02510 43.68990 35966 ft 385 kts 287°
2026-04-22 17:09 29.04573 43.63380 35965 ft 386 kts 287°
2026-04-22 17:09 29.06649 43.57723 35966 ft 386 kts 287°
2026-04-22 17:10 29.08725 43.52059 35968 ft 386 kts 287°
2026-04-22 17:10 29.10801 43.46386 35963 ft 386 kts 287°
2026-04-22 17:11 29.12872 43.40718 35969 ft 386 kts 287°
2026-04-22 17:11 29.14942 43.35044 35963 ft 386 kts 287°
2026-04-22 17:12 29.16992 43.29413 35966 ft 385 kts 287°
2026-04-22 17:12 29.19050 43.23755 35968 ft 385 kts 286°
2026-04-22 17:13 29.21104 43.18097 35964 ft 385 kts 286°
2026-04-22 17:13 29.23159 43.12429 35963 ft 385 kts 286°
2026-04-22 17:14 29.25206 43.06771 35965 ft 385 kts 286°
2026-04-22 17:14 29.27252 43.01111 35971 ft 385 kts 286°
2026-04-22 17:15 29.29299 42.95436 35970 ft 385 kts 286°
2026-04-22 17:15 29.31344 42.89758 35970 ft 386 kts 286°
2026-04-22 17:16 29.33378 42.84101 35970 ft 387 kts 286°
2026-04-22 17:16 29.35427 42.78397 35973 ft 387 kts 286°
2026-04-22 17:17 29.37475 42.72683 35967 ft 388 kts 286°
2026-04-22 17:17 29.39525 42.66958 35967 ft 388 kts 286°
2026-04-22 17:18 29.41576 42.61217 35969 ft 389 kts 286°
2026-04-22 17:18 29.43629 42.55464 35977 ft 390 kts 286°
2026-04-22 17:19 29.47738 42.43922 35979 ft 390 kts 286°
2026-04-22 17:20 29.51819 42.32421 35976 ft 390 kts 286°
2026-04-22 17:21 29.54885 42.23753 35978 ft 390 kts 286°
2026-04-22 17:22 29.57944 42.15086 35985 ft 390 kts 286°
2026-04-22 17:23 29.60998 42.06413 35988 ft 390 kts 286°
2026-04-22 17:23 29.64027 41.97788 35984 ft 389 kts 286°
2026-04-22 17:24 29.66051 41.92014 35988 ft 389 kts 286°
2026-04-22 17:24 29.68075 41.86228 35983 ft 389 kts 286°
2026-04-22 17:25 29.70097 41.80439 35987 ft 390 kts 286°
2026-04-22 17:25 29.72113 41.74658 35993 ft 390 kts 286°
2026-04-22 17:26 29.74131 41.68862 35992 ft 390 kts 286°
2026-04-22 17:26 29.76137 41.63093 35993 ft 390 kts 285°
2026-04-22 17:27 29.78150 41.57291 35996 ft 391 kts 285°
2026-04-22 17:27 29.80166 41.51472 35995 ft 391 kts 285°
2026-04-22 17:28 29.82177 41.45658 35999 ft 391 kts 285°
2026-04-22 17:28 29.84189 41.39832 35998 ft 392 kts 285°
2026-04-22 17:29 29.85862 41.34979 35999 ft 392 kts 285°
2026-04-22 17:29 29.88200 41.28188 36003 ft 392 kts 285°
2026-04-22 17:30 29.89885 41.23283 36003 ft 392 kts 285°
2026-04-22 17:30 29.91895 41.17426 36004 ft 393 kts 285°
2026-04-22 17:31 29.93889 41.11604 36009 ft 393 kts 285°
2026-04-22 17:31 29.95895 41.05737 36008 ft 393 kts 285°
2026-04-22 17:32 29.97902 40.99857 36013 ft 393 kts 285°
2026-04-22 17:32 29.99904 40.93984 36011 ft 393 kts 285°
2026-04-22 17:33 30.01902 40.88112 36012 ft 393 kts 285°
2026-04-22 17:33 30.03898 40.82235 36014 ft 393 kts 285°
2026-04-22 17:34 30.05887 40.76367 36013 ft 392 kts 285°
2026-04-22 17:34 30.07859 40.70542 36021 ft 392 kts 285°
2026-04-22 17:35 30.09839 40.64681 36022 ft 392 kts 285°
2026-04-22 17:35 30.11820 40.58806 36021 ft 392 kts 285°
2026-04-22 17:36 30.13795 40.52942 36018 ft 392 kts 285°
2026-04-22 17:36 30.15768 40.47071 36022 ft 392 kts 285°
2026-04-22 17:37 30.17725 40.41239 36022 ft 391 kts 285°
2026-04-22 17:37 30.19689 40.35376 36028 ft 391 kts 285°
2026-04-22 17:38 30.21655 40.29495 36023 ft 392 kts 285°
2026-04-22 17:38 30.23620 40.23609 36034 ft 392 kts 285°
2026-04-22 17:39 30.25584 40.17717 36031 ft 392 kts 285°
2026-04-22 17:40 30.28524 40.08876 36039 ft 392 kts 285°
2026-04-22 17:40 30.30483 40.02971 36039 ft 393 kts 285°
2026-04-22 17:41 30.32427 39.97101 36039 ft 393 kts 285°
2026-04-22 17:41 30.34383 39.91184 36041 ft 393 kts 285°
2026-04-22 17:42 30.36336 39.85265 36037 ft 394 kts 285°
2026-04-22 17:42 30.38296 39.79319 36040 ft 394 kts 285°
2026-04-22 17:43 30.40249 39.73380 36040 ft 394 kts 285°
2026-04-22 17:43 30.42190 39.67468 36040 ft 395 kts 285°
2026-04-22 17:44 30.44141 39.61513 36041 ft 395 kts 285°
2026-04-22 17:44 30.46094 39.55545 36039 ft 396 kts 285°
2026-04-22 17:45 30.48030 39.49615 36036 ft 396 kts 285°
2026-04-22 17:45 30.49981 39.43629 36039 ft 397 kts 285°
2026-04-22 17:46 30.51933 39.37630 36037 ft 398 kts 285°
2026-04-22 17:46 30.53886 39.31614 36038 ft 399 kts 285°
2026-04-22 17:47 30.55841 39.25586 36026 ft 400 kts 285°
2026-04-22 17:47 30.57800 39.19530 36034 ft 400 kts 285°
2026-04-22 17:48 30.59427 39.14494 36031 ft 401 kts 285°
2026-04-22 17:48 30.61712 39.07406 36028 ft 402 kts 285°
2026-04-22 17:49 30.63671 39.01321 36024 ft 402 kts 285°
2026-04-22 17:49 30.65618 38.95261 36021 ft 403 kts 285°
2026-04-22 17:50 30.67574 38.89159 36015 ft 403 kts 285°
2026-04-22 17:50 30.69531 38.83044 36012 ft 403 kts 286°
2026-04-22 17:51 30.71484 38.76933 36005 ft 403 kts 286°
2026-04-22 17:51 30.73432 38.70822 36004 ft 403 kts 286°
2026-04-22 17:52 30.75377 38.64712 35994 ft 402 kts 286°
2026-04-22 17:52 30.77302 38.58651 35992 ft 402 kts 286°
2026-04-22 17:53 30.79237 38.52548 35991 ft 402 kts 286°
2026-04-22 17:53 30.81169 38.46443 35990 ft 402 kts 286°
2026-04-22 17:54 30.83097 38.40338 35990 ft 402 kts 286°
2026-04-22 17:54 30.85022 38.34230 35981 ft 402 kts 286°
2026-04-22 17:55 30.86621 38.29151 35981 ft 402 kts 286°
2026-04-22 17:55 30.88852 38.22048 35983 ft 402 kts 286°
2026-04-22 17:56 30.90774 38.15916 35977 ft 403 kts 286°
2026-04-22 17:56 30.92694 38.09780 35973 ft 403 kts 286°
2026-04-22 17:57 30.94613 38.03635 35975 ft 404 kts 286°
2026-04-22 17:57 30.96531 37.97479 35973 ft 405 kts 286°
2026-04-22 17:58 30.98453 37.91301 35974 ft 405 kts 286°
2026-04-22 17:58 31.00372 37.85120 35965 ft 406 kts 286°
2026-04-22 17:59 31.02290 37.78932 35963 ft 406 kts 286°
2026-04-22 17:59 31.04208 37.72730 35964 ft 407 kts 286°
2026-04-22 18:00 31.05803 37.67565 35959 ft 407 kts 286°
2026-04-22 18:00 31.08028 37.60343 35964 ft 407 kts 286°
2026-04-22 18:01 31.09940 37.54126 35963 ft 407 kts 286°
2026-04-22 18:01 31.11842 37.47915 35962 ft 406 kts 286°
2026-04-22 18:02 31.13745 37.41707 35951 ft 406 kts 286°
2026-04-22 18:02 31.15644 37.35499 35960 ft 405 kts 286°
2026-04-22 18:03 31.17523 37.29343 35972 ft 405 kts 286°
2026-04-22 18:03 31.19408 37.23151 35961 ft 404 kts 286°
2026-04-22 18:04 31.21291 37.16956 35959 ft 404 kts 286°
2026-04-22 18:04 31.23170 37.10758 35962 ft 404 kts 286°
2026-04-22 18:05 31.25048 37.04553 35961 ft 404 kts 286°
2026-04-22 18:05 31.26908 36.98393 35962 ft 404 kts 286°
2026-04-22 18:06 31.28783 36.92173 35965 ft 405 kts 286°
2026-04-22 18:06 31.30657 36.85945 35966 ft 406 kts 286°
2026-04-22 18:07 31.32213 36.80763 35971 ft 407 kts 286°
2026-04-22 18:07 31.34392 36.73494 35980 ft 408 kts 286°
2026-04-22 18:08 31.36269 36.67218 35984 ft 408 kts 286°
2026-04-22 18:08 31.38144 36.60934 35989 ft 409 kts 286°
2026-04-22 18:09 31.40019 36.54640 35995 ft 410 kts 286°
2026-04-22 18:09 31.41894 36.48333 35996 ft 410 kts 287°
2026-04-22 18:10 31.43764 36.42028 35999 ft 410 kts 287°
2026-04-22 18:10 31.45620 36.35760 36006 ft 410 kts 287°
2026-04-22 18:11 31.47480 36.29463 36012 ft 409 kts 287°
2026-04-22 18:11 31.49337 36.23164 36011 ft 409 kts 287°
2026-04-22 18:12 31.51190 36.16864 36029 ft 408 kts 287°
2026-04-22 18:12 31.52728 36.11626 36038 ft 408 kts 287°
2026-04-22 18:13 31.54883 36.04276 36040 ft 408 kts 287°
2026-04-22 18:13 31.56713 35.98017 36046 ft 407 kts 287°
2026-04-22 18:14 31.58545 35.91729 36043 ft 407 kts 286°
2026-04-22 18:14 31.60372 35.85437 36044 ft 407 kts 287°
2026-04-22 18:15 31.62203 35.79150 36034 ft 407 kts 287°
2026-04-22 18:15 31.64030 35.72857 36019 ft 407 kts 287°
2026-04-22 18:16 31.65855 35.66554 36012 ft 408 kts 287°
2026-04-22 18:16 31.67370 35.61307 36006 ft 409 kts 287°
2026-04-22 18:17 31.69196 35.54973 35988 ft 409 kts 287°
2026-04-22 18:17 31.71021 35.48629 35996 ft 409 kts 287°
2026-04-22 18:18 31.72839 35.42296 36007 ft 409 kts 287°
2026-04-22 18:18 31.74644 35.35995 35998 ft 409 kts 287°
2026-04-22 18:19 31.76456 35.29654 36004 ft 409 kts 287°
2026-04-22 18:19 31.78265 35.23311 36003 ft 409 kts 287°
2026-04-22 18:20 31.80071 35.16965 36017 ft 409 kts 287°
2026-04-22 18:20 31.81875 35.10614 36016 ft 410 kts 287°
2026-04-22 18:21 31.83683 35.04234 36016 ft 411 kts 287°
2026-04-22 18:21 31.85479 34.97883 36024 ft 411 kts 287°
2026-04-22 18:22 31.87284 34.91488 36020 ft 411 kts 287°
2026-04-22 18:22 31.89085 34.85092 36019 ft 412 kts 287°
2026-04-22 18:23 31.90883 34.78693 36021 ft 412 kts 287°
2026-04-22 18:23 31.92679 34.72287 36018 ft 411 kts 287°
2026-04-22 18:24 31.95361 34.62694 36016 ft 411 kts 287°
2026-04-22 18:25 31.98022 34.53145 36013 ft 410 kts 287°
2026-04-22 18:25 31.99796 34.46760 36010 ft 409 kts 287°
2026-04-22 18:26 32.02446 34.37200 36015 ft 409 kts 287°
2026-04-22 18:26 32.04208 34.30824 36014 ft 409 kts 287°
2026-04-22 18:27 32.06051 34.24484 36005 ft 409 kts 292°
2026-04-22 18:27 32.08942 34.18683 36015 ft 411 kts 300°
2026-04-22 18:28 32.11986 34.12967 36019 ft 411 kts 299°
2026-04-22 18:28 32.15007 34.07237 36019 ft 412 kts 299°
2026-04-22 18:29 32.17998 34.01513 36019 ft 412 kts 299°
2026-04-22 18:29 32.21003 33.95752 36019 ft 412 kts 299°
2026-04-22 18:30 32.25511 33.87090 36021 ft 413 kts 299°
2026-04-22 18:31 32.28519 33.81296 36025 ft 413 kts 299°
2026-04-22 18:31 32.31526 33.75496 36025 ft 413 kts 299°
2026-04-22 18:32 32.34531 33.69689 36027 ft 413 kts 299°
2026-04-22 18:32 32.37511 33.63922 36024 ft 414 kts 299°
2026-04-22 18:33 32.40509 33.58111 36025 ft 413 kts 299°
2026-04-22 18:33 32.43506 33.52294 36024 ft 413 kts 299°
2026-04-22 18:34 32.46312 33.46840 36024 ft 413 kts 299°
2026-04-22 18:34 32.49296 33.41029 36027 ft 412 kts 299°
2026-04-22 18:35 32.52276 33.35218 36028 ft 412 kts 299°
2026-04-22 18:35 32.55230 33.29450 36029 ft 412 kts 299°
2026-04-22 18:36 32.58198 33.23643 36027 ft 411 kts 299°
2026-04-22 18:36 32.61159 33.17844 36029 ft 411 kts 299°
2026-04-22 18:37 32.64114 33.12045 36028 ft 411 kts 299°
2026-04-22 18:37 32.66570 33.07218 36029 ft 411 kts 299°
2026-04-22 18:38 32.70018 33.00433 36029 ft 410 kts 299°
2026-04-22 18:38 32.72967 32.94619 36031 ft 411 kts 299°
2026-04-22 18:39 32.77385 32.85892 36029 ft 411 kts 299°
2026-04-22 18:39 32.80310 32.80103 36032 ft 411 kts 299°
2026-04-22 18:40 32.83247 32.74280 36033 ft 411 kts 299°
2026-04-22 18:40 32.86186 32.68445 36033 ft 411 kts 299°
2026-04-22 18:41 32.89125 32.62600 36033 ft 411 kts 298°
2026-04-22 18:41 32.92064 32.56747 36034 ft 411 kts 298°
2026-04-22 18:42 32.94981 32.50926 36035 ft 411 kts 298°
2026-04-22 18:42 32.97914 32.45066 36032 ft 411 kts 298°
2026-04-22 18:43 33.00842 32.39206 36032 ft 411 kts 298°
2026-04-22 18:43 33.03764 32.33349 36031 ft 411 kts 298°
2026-04-22 18:44 33.06689 32.27477 36031 ft 411 kts 298°
2026-04-22 18:44 33.09585 32.21653 36031 ft 410 kts 298°
2026-04-22 18:45 33.12495 32.15791 36030 ft 410 kts 298°
2026-04-22 18:45 33.15399 32.09932 36029 ft 409 kts 298°
2026-04-22 18:46 33.18296 32.04079 36031 ft 409 kts 298°
2026-04-22 18:46 33.21187 31.98228 36031 ft 409 kts 298°
2026-04-22 18:47 33.24060 31.92421 36032 ft 408 kts 298°
2026-04-22 18:47 33.26936 31.86574 36029 ft 408 kts 298°
2026-04-22 18:48 33.29808 31.80726 36032 ft 408 kts 298°
2026-04-22 18:48 33.32681 31.74873 36032 ft 407 kts 298°
2026-04-22 18:49 33.35546 31.69026 36027 ft 407 kts 298°
2026-04-22 18:49 33.38392 31.63210 36019 ft 407 kts 298°
2026-04-22 18:50 33.41250 31.57360 36021 ft 407 kts 298°
2026-04-22 18:50 33.44102 31.51512 36027 ft 407 kts 298°
2026-04-22 18:51 33.46957 31.45650 36023 ft 407 kts 298°
2026-04-22 18:51 33.49807 31.39789 36021 ft 407 kts 298°
2026-04-22 18:52 33.52654 31.33923 36027 ft 407 kts 298°
2026-04-22 18:52 33.55501 31.28048 36026 ft 407 kts 298°
2026-04-22 18:53 33.58321 31.22219 36026 ft 407 kts 298°
2026-04-22 18:53 33.61161 31.16340 36025 ft 407 kts 298°
2026-04-22 18:54 33.63994 31.10465 36024 ft 406 kts 298°
2026-04-22 18:54 33.66823 31.04589 36023 ft 406 kts 298°
2026-04-22 18:55 33.69653 30.98701 36028 ft 406 kts 297°
2026-04-22 18:55 33.72451 30.92871 36020 ft 406 kts 297°
2026-04-22 18:56 33.75268 30.86990 36021 ft 406 kts 297°
2026-04-22 18:56 33.78080 30.81111 36026 ft 405 kts 297°
2026-04-22 18:57 33.80885 30.75237 36029 ft 405 kts 297°
2026-04-22 18:57 33.83686 30.69360 36018 ft 405 kts 297°
2026-04-22 18:58 33.86489 30.63472 36020 ft 405 kts 297°
2026-04-22 18:58 33.89267 30.57624 36016 ft 405 kts 297°
2026-04-22 18:59 33.92058 30.51741 36019 ft 404 kts 297°
2026-04-22 18:59 33.94847 30.45852 36021 ft 404 kts 297°
2026-04-22 19:00 33.97631 30.39964 36018 ft 404 kts 297°
2026-04-22 19:00 34.00413 30.34068 36022 ft 404 kts 297°
2026-04-22 19:01 34.03192 30.28172 36019 ft 404 kts 297°
2026-04-22 19:01 34.05967 30.22271 36017 ft 404 kts 297°
2026-04-22 19:02 34.08721 30.16408 36021 ft 405 kts 297°
2026-04-22 19:02 34.11494 30.10491 36015 ft 405 kts 297°
2026-04-22 19:03 34.14263 30.04578 36025 ft 404 kts 297°
2026-04-22 19:03 34.16704 29.99746 36015 ft 406 kts 304°
2026-04-22 19:04 34.20532 29.94675 36020 ft 409 kts 310°
2026-04-22 19:04 34.24493 29.89733 36020 ft 409 kts 310°
2026-04-22 19:05 34.28443 29.84774 36016 ft 409 kts 310°
2026-04-22 19:05 34.32380 29.79797 36016 ft 409 kts 310°
2026-04-22 19:06 34.36307 29.74814 36014 ft 409 kts 310°
2026-04-22 19:07 34.42165 29.67364 36013 ft 409 kts 310°
2026-04-22 19:07 34.46091 29.62363 36013 ft 409 kts 310°
2026-04-22 19:08 34.50006 29.57367 36015 ft 409 kts 310°
2026-04-22 19:08 34.53922 29.52362 36017 ft 409 kts 310°
2026-04-22 19:09 34.57831 29.47362 36011 ft 408 kts 310°
2026-04-22 19:09 34.61745 29.42348 36011 ft 408 kts 310°
2026-04-22 19:10 34.65628 29.37365 36017 ft 408 kts 310°
2026-04-22 19:10 34.69535 29.32345 36009 ft 408 kts 310°
2026-04-22 19:11 34.73435 29.27325 36009 ft 408 kts 310°
2026-04-22 19:11 34.77331 29.22303 36001 ft 408 kts 310°
2026-04-22 19:12 34.81217 29.17287 36002 ft 408 kts 310°
2026-04-22 19:12 34.85112 29.12252 36007 ft 408 kts 310°
2026-04-22 19:13 34.88978 29.07248 36011 ft 408 kts 310°
2026-04-22 19:13 34.92860 29.02214 36006 ft 407 kts 310°
2026-04-22 19:14 34.96744 28.97171 36006 ft 407 kts 310°
2026-04-22 19:14 35.00622 28.92128 36001 ft 407 kts 310°
2026-04-22 19:15 35.03843 28.87935 36002 ft 407 kts 310°
2026-04-22 19:15 35.08368 28.82033 36008 ft 407 kts 310°
2026-04-22 19:16 35.12240 28.76975 36004 ft 407 kts 310°
2026-04-22 19:16 35.16078 28.71955 36006 ft 407 kts 310°
2026-04-22 19:17 35.19945 28.66889 36001 ft 407 kts 310°
2026-04-22 19:17 35.23803 28.61827 35998 ft 407 kts 310°
2026-04-22 19:18 35.27659 28.56760 35999 ft 407 kts 310°
2026-04-22 19:18 35.31495 28.51711 35997 ft 406 kts 310°
2026-04-22 19:19 35.35344 28.46639 35993 ft 406 kts 310°
2026-04-22 19:19 35.39192 28.41560 35997 ft 406 kts 310°
2026-04-22 19:20 35.43031 28.36485 35992 ft 406 kts 309°
2026-04-22 19:20 35.46872 28.31400 35993 ft 406 kts 309°
2026-04-22 19:21 35.50714 28.26306 35991 ft 406 kts 309°
2026-04-22 19:21 35.54524 28.21246 35993 ft 406 kts 309°
2026-04-22 19:22 35.58353 28.16154 35990 ft 406 kts 309°
2026-04-22 19:22 35.62188 28.11045 35988 ft 405 kts 309°
2026-04-22 19:23 35.65989 28.05976 35987 ft 405 kts 309°
2026-04-22 19:23 35.69806 28.00876 35984 ft 405 kts 309°
2026-04-22 19:24 35.73619 27.95774 35989 ft 405 kts 309°
2026-04-22 19:24 35.77430 27.90667 35985 ft 405 kts 309°
2026-04-22 19:25 35.81237 27.85557 35986 ft 404 kts 309°
2026-04-22 19:25 35.85043 27.80441 35985 ft 404 kts 309°
2026-04-22 19:26 35.88816 27.75362 35984 ft 404 kts 309°
2026-04-22 19:26 35.92606 27.70251 35980 ft 404 kts 309°
2026-04-22 19:27 35.96394 27.65137 35982 ft 403 kts 309°
2026-04-22 19:27 36.00174 27.60024 35977 ft 403 kts 309°
2026-04-22 19:28 36.03960 27.54897 35973 ft 403 kts 309°
2026-04-22 19:28 36.07732 27.49780 35968 ft 402 kts 309°
2026-04-22 19:29 36.11502 27.44658 35963 ft 402 kts 309°
2026-04-22 19:29 36.15244 27.39566 35962 ft 402 kts 309°
2026-04-22 19:30 36.18395 27.35272 35958 ft 402 kts 309°
2026-04-22 19:30 36.22763 27.29310 35959 ft 402 kts 309°
2026-04-22 19:31 36.26518 27.24173 35961 ft 402 kts 309°
2026-04-22 19:31 36.30274 27.19031 35962 ft 401 kts 309°
2026-04-22 19:32 36.34023 27.13893 35968 ft 402 kts 309°
2026-04-22 19:32 36.37745 27.08781 35969 ft 402 kts 309°
2026-04-22 19:33 36.41487 27.03635 35970 ft 402 kts 309°
2026-04-22 19:33 36.45236 26.98470 35974 ft 402 kts 309°
2026-04-22 19:34 36.48980 26.93302 35975 ft 402 kts 309°
2026-04-22 19:34 36.52722 26.88131 35972 ft 402 kts 309°
2026-04-22 19:35 36.56463 26.82953 35977 ft 402 kts 309°
2026-04-22 19:35 36.59572 26.78644 35978 ft 402 kts 309°
2026-04-22 19:36 36.63912 26.72618 35975 ft 402 kts 309°
2026-04-22 19:36 36.67652 26.67416 35972 ft 402 kts 309°
2026-04-22 19:37 36.71377 26.62228 35975 ft 402 kts 309°
2026-04-22 19:37 36.75109 26.57021 35975 ft 402 kts 309°
2026-04-22 19:38 36.78836 26.51813 35964 ft 401 kts 309°
2026-04-22 19:38 36.82551 26.46614 35961 ft 401 kts 309°
2026-04-22 19:39 36.86238 26.41446 35964 ft 401 kts 309°
2026-04-22 19:39 36.89945 26.36240 35968 ft 400 kts 309°
2026-04-22 19:40 36.93643 26.31041 35964 ft 400 kts 309°
2026-04-22 19:40 36.97251 26.25754 35958 ft 398 kts 303°
2026-04-22 19:41 36.99822 26.19736 35975 ft 394 kts 292°
2026-04-22 19:41 37.01938 26.13395 35963 ft 395 kts 292°
2026-04-22 19:42 37.04059 26.07061 35966 ft 394 kts 292°
2026-04-22 19:42 37.06187 26.00735 35961 ft 394 kts 292°
2026-04-22 19:43 37.09393 25.91224 35264 ft 392 kts 292°
2026-04-22 19:43 37.10446 25.88095 34896 ft 387 kts 292°
2026-04-22 19:43 37.11474 25.85035 34481 ft 383 kts 293°
2026-04-22 19:44 37.12514 25.81937 34079 ft 379 kts 293°
2026-04-22 19:44 37.13519 25.78939 33637 ft 376 kts 293°
2026-04-22 19:44 37.14528 25.75926 33193 ft 372 kts 293°
2026-04-22 19:44 37.15522 25.72953 32811 ft 368 kts 292°
2026-04-22 19:45 37.16504 25.70014 32414 ft 364 kts 292°
2026-04-22 19:45 37.17478 25.67096 32018 ft 360 kts 292°
2026-04-22 19:45 37.18440 25.64212 31630 ft 356 kts 292°
2026-04-22 19:45 37.19391 25.61358 31247 ft 353 kts 292°
2026-04-22 19:46 37.20333 25.58530 30875 ft 350 kts 292°
2026-04-22 19:46 37.21266 25.55724 30503 ft 347 kts 292°
2026-04-22 19:46 37.22193 25.52935 30131 ft 344 kts 292°
2026-04-22 19:46 37.23107 25.50174 29732 ft 341 kts 291°
2026-04-22 19:47 37.23997 25.47440 29317 ft 338 kts 291°
2026-04-22 19:47 37.24867 25.44751 28945 ft 333 kts 291°
2026-04-22 19:47 37.25452 25.42942 28696 ft 331 kts 291°
2026-04-22 19:47 37.26593 25.39419 28209 ft 326 kts 291°
2026-04-22 19:48 37.27443 25.36791 27840 ft 322 kts 291°
2026-04-22 19:48 37.28220 25.34166 27449 ft 320 kts 289°
2026-04-22 19:48 37.28931 25.31529 27064 ft 318 kts 288°
2026-04-22 19:48 37.29622 25.28903 26701 ft 316 kts 288°
2026-04-22 19:49 37.30309 25.26292 26347 ft 314 kts 288°
2026-04-22 19:49 37.30764 25.24569 26115 ft 313 kts 288°
2026-04-22 19:49 37.31694 25.21067 25662 ft 321 kts 288°
2026-04-22 19:49 37.32168 25.19288 25434 ft 328 kts 288°
2026-04-22 19:50 37.32900 25.16542 25057 ft 330 kts 288°
2026-04-22 19:50 37.33617 25.13853 24876 ft 321 kts 288°
2026-04-22 19:50 37.34334 25.11167 24429 ft 321 kts 288°
2026-04-22 19:50 37.35046 25.08496 24006 ft 322 kts 288°
2026-04-22 19:51 37.35754 25.05836 23646 ft 319 kts 288°
2026-04-22 19:51 37.36449 25.03223 23250 ft 318 kts 288°
2026-04-22 19:51 37.37151 25.00584 22742 ft 318 kts 288°
2026-04-22 19:51 37.37849 24.97959 22361 ft 315 kts 288°
2026-04-22 19:52 37.38541 24.95359 22013 ft 312 kts 288°
2026-04-22 19:52 37.39225 24.92783 21701 ft 307 kts 288°
2026-04-22 19:52 37.39878 24.90322 21753 ft 288 kts 288°
2026-04-22 19:52 37.40494 24.88000 21654 ft 272 kts 288°
2026-04-22 19:53 37.41073 24.85814 21526 ft 254 kts 288°
2026-04-22 19:53 37.41614 24.83774 21394 ft 237 kts 288°
2026-04-22 19:53 37.42122 24.81853 21181 ft 228 kts 287°
2026-04-22 19:53 37.42617 24.79976 20805 ft 226 kts 287°
2026-04-22 19:54 37.43112 24.78101 20399 ft 225 kts 287°
2026-04-22 19:54 37.43605 24.76229 20009 ft 224 kts 287°
2026-04-22 19:54 37.44094 24.74374 19638 ft 223 kts 287°
2026-04-22 19:54 37.44580 24.72527 19262 ft 222 kts 287°
2026-04-22 19:55 37.45068 24.70672 18861 ft 224 kts 287°
2026-04-22 19:55 37.45549 24.68846 18527 ft 222 kts 287°
2026-04-22 19:55 37.46026 24.67028 18276 ft 216 kts 287°
2026-04-22 19:55 37.46494 24.65244 17983 ft 213 kts 287°
2026-04-22 19:56 37.46957 24.63483 17733 ft 210 kts 287°
2026-04-22 19:56 37.47415 24.61735 17496 ft 210 kts 287°
2026-04-22 19:56 37.47877 24.59974 17257 ft 214 kts 287°
2026-04-22 19:56 37.48346 24.58181 17026 ft 217 kts 287°
2026-04-22 19:57 37.48819 24.56376 16773 ft 216 kts 287°
2026-04-22 19:57 37.49287 24.54583 16523 ft 215 kts 287°
2026-04-22 19:57 37.49753 24.52803 16287 ft 213 kts 287°
2026-04-22 19:57 37.50216 24.51030 16051 ft 212 kts 287°
2026-04-22 19:58 37.50673 24.49280 15810 ft 210 kts 287°
2026-04-22 19:58 37.51129 24.47533 15583 ft 209 kts 286°
2026-04-22 19:58 37.51581 24.45797 15352 ft 208 kts 286°
2026-04-22 19:58 37.52041 24.44026 15098 ft 223 kts 286°
2026-04-22 19:59 37.52557 24.42036 14903 ft 262 kts 287°
2026-04-22 20:00 37.55663 24.27354 12763 ft 287 kts 267°
2026-04-22 20:00 37.55528 24.24849 12401 ft 285 kts 267°
2026-04-22 20:01 37.55397 24.22364 12067 ft 283 kts 267°
2026-04-22 20:01 37.55276 24.19895 11732 ft 281 kts 267°
2026-04-22 20:01 37.55162 24.17461 11581 ft 270 kts 267°
2026-04-22 20:01 37.55057 24.15214 11606 ft 247 kts 268°
2026-04-22 20:02 37.54963 24.13157 11480 ft 229 kts 268°
2026-04-22 20:02 37.54875 24.11229 11346 ft 212 kts 268°
2026-04-22 20:02 37.54791 24.09422 11121 ft 204 kts 268°
2026-04-22 20:02 37.54710 24.07647 10791 ft 203 kts 268°
2026-04-22 20:03 37.54628 24.05876 10438 ft 202 kts 268°
2026-04-22 20:03 37.54546 24.04106 10168 ft 199 kts 268°
2026-04-22 20:03 37.54467 24.02387 10032 ft 195 kts 268°
2026-04-22 20:03 37.54386 24.00662 9854 ft 201 kts 267°
2026-04-22 20:04 37.54303 23.98881 9640 ft 206 kts 267°
2026-04-22 20:04 37.54218 23.97069 9403 ft 207 kts 267°
2026-04-22 20:04 37.54133 23.95275 9182 ft 202 kts 267°
2026-04-22 20:04 37.54050 23.93526 8935 ft 197 kts 267°
2026-04-22 20:05 37.53969 23.91816 8718 ft 194 kts 267°
2026-04-22 20:05 37.53889 23.90121 8507 ft 194 kts 267°
2026-04-22 20:05 37.53807 23.88421 8295 ft 195 kts 267°
2026-04-22 20:05 37.53725 23.86713 8083 ft 196 kts 267°
2026-04-22 20:06 37.53643 23.84992 7867 ft 197 kts 267°
2026-04-22 20:06 37.53561 23.83304 7686 ft 191 kts 267°
2026-04-22 20:06 37.53483 23.81694 7598 ft 180 kts 267°
2026-04-22 20:06 37.53407 23.80118 7521 ft 180 kts 267°
2026-04-22 20:07 37.53330 23.78551 7444 ft 179 kts 267°
2026-04-22 20:07 37.53254 23.76987 7373 ft 179 kts 267°
2026-04-22 20:07 37.53472 23.75472 7274 ft 179 kts 298°
2026-04-22 20:07 37.54371 23.74371 7113 ft 188 kts 330°
2026-04-22 20:08 37.55679 23.74040 6967 ft 197 kts 352°
2026-04-22 20:08 37.57063 23.73927 6756 ft 200 kts 352°
2026-04-22 20:08 37.58447 23.73814 6532 ft 197 kts 352°
2026-04-22 20:08 37.59803 23.73707 6311 ft 193 kts 352°
2026-04-22 20:09 37.61139 23.73602 6087 ft 191 kts 352°
2026-04-22 20:09 37.62442 23.73499 5888 ft 191 kts 353°
2026-04-22 20:09 37.63768 23.73394 5680 ft 190 kts 353°
2026-04-22 20:09 37.65089 23.73290 5475 ft 190 kts 353°
2026-04-22 20:10 37.66413 23.73186 5281 ft 191 kts 353°
2026-04-22 20:10 37.67737 23.73082 5075 ft 191 kts 354°
2026-04-22 20:10 37.69068 23.72978 4886 ft 192 kts 354°
2026-04-22 20:10 37.70403 23.72873 4729 ft 191 kts 354°
2026-04-22 20:11 37.71720 23.72838 4587 ft 191 kts
2026-04-22 20:11 37.72877 23.73651 4434 ft 192 kts 39°
2026-04-22 20:11 37.73965 23.74697 4230 ft 199 kts 36°
2026-04-22 20:11 37.75104 23.75680 4023 ft 201 kts 34°
2026-04-22 20:12 37.76241 23.76685 3799 ft 197 kts 36°
2026-04-22 20:12 37.77322 23.77692 3583 ft 188 kts 37°
2026-04-22 20:12 37.78020 23.78354 3447 ft 183 kts 38°
2026-04-22 20:12 37.79322 23.79598 3234 ft 171 kts 38°
2026-04-22 20:13 37.80251 23.80488 3050 ft 164 kts 38°
2026-04-22 20:13 37.81138 23.81337 2914 ft 156 kts 38°
2026-04-22 20:13 37.82006 23.82168 2839 ft 158 kts 38°
2026-04-22 20:13 37.82873 23.82998 2640 ft 154 kts 38°
2026-04-22 20:14 37.83715 23.83803 2443 ft 149 kts 37°
2026-04-22 20:14 37.84544 23.84575 2251 ft 147 kts 36°
2026-04-22 20:14 37.85354 23.85346 2033 ft 143 kts 40°
2026-04-22 20:14 37.86102 23.86149 1867 ft 140 kts 37°
2026-04-22 20:15 37.86899 23.86870 1672 ft 142 kts 34°
2026-04-22 20:15 37.87690 23.87604 1467 ft 139 kts 36°
2026-04-22 20:15 37.88455 23.88335 1260 ft 137 kts 36°
2026-04-22 20:15 37.89192 23.89046 1071 ft 136 kts 36°
2026-04-22 20:16 37.89960 23.89786 1124 ft 138 kts 37°
2026-04-22 20:16 37.90710 23.90457 1134 ft 123 kts 37°
2026-04-22 20:16 37.91391 23.91147 590 ft 127 kts 39°
2026-04-22 20:16 37.92053 23.91815 316 ft 114 kts 33°
2026-04-22 20:17 37.92602 23.92319 268 ft 58 kts 35°